Time,TemperatureF,DewpointF,PressureIn,WindDirection,WindDirectionDegrees,WindSpeedMPH,WindSpeedGustMPH,Humidity,HourlyPrecipIn,Conditions,Clouds,dailyrainin,SoftwareType,DateUTC
2013-04-14 00:00:00,61.6,61.6,29.93,SE,138,0.0,0.0,100,0.00,,,0.00,Wunderground v.1.15,2013-04-14 04:00:00,
2013-04-14 00:04:00,61.8,61.8,29.93,SE,143,1.0,1.0,100,0.00,,,0.00,Wunderground v.1.15,2013-04-14 04:04:00,
2013-04-14 00:06:00,61.8,61.8,29.93,SE,143,1.0,1.0,100,0.00,,,0.00,Wunderground v.1.15,2013-04-14 04:06:00,
2013-04-14 00:10:00,61.6,61.6,29.93,SE,143,1.0,1.0,100,0.00,,,0.00,Wunderground v.1.15,2013-04-14 04:10:00,
2013-04-14 00:18:00,61.5,61.5,29.93,SE,144,0.0,1.0,100,0.00,,,0.00,Wunderground v.1.15,2013-04-14 04:18:00,
2013-04-14 00:24:00,61.5,61.5,29.93,SE,143,0.0,1.0,100,0.00,,,0.00,Wunderground v.1.15,2013-04-14 04:24:00,
2013-04-14 00:30:00,61.5,61.5,29.94,SE,145,0.0,0.0,100,0.00,,,0.00,Wunderground v.1.15,2013-04-14 04:30:00,
2013-04-14 00:38:00,61.5,61.5,29.94,SE,145,0.0,0.0,100,0.00,,,0.00,Wunderground v.1.15,2013-04-14 04:38:00,
2013-04-14 00:44:00,61.3,61.3,29.94,SE,144,0.0,0.0,100,0.00,,,0.00,Wunderground v.1.15,2013-04-14 04:44:00,
2013-04-14 00:50:00,61.2,61.2,29.94,SE,145,0.0,0.0,100,0.00,,,0.00,Wunderground v.1.15,2013-04-14 04:50:00,
2013-04-14 00:56:00,61.0,61.0,29.94,SE,145,0.0,0.0,100,0.00,,,0.00,Wunderground v.1.15,2013-04-14 04:56:00,
2013-04-14 01:02:00,60.5,60.5,29.93,SE,144,0.0,0.0,100,0.00,,,0.00,Wunderground v.1.15,2013-04-14 05:02:00,
2013-04-14 01:08:00,60.4,60.4,29.93,SE,145,0.0,0.0,100,0.00,,,0.00,Wunderground v.1.15,2013-04-14 05:08:00,
2013-04-14 01:14:00,60.5,60.5,29.93,SE,144,0.0,0.0,100,0.00,,,0.00,Wunderground v.1.15,2013-04-14 05:14:00,
2013-04-14 01:20:00,60.5,60.5,29.93,SE,144,0.0,0.0,100,0.00,,,0.00,Wunderground v.1.15,2013-04-14 05:20:00,
2013-04-14 01:26:00,60.4,60.4,29.93,SE,145,0.0,0.0,100,0.00,,,0.00,Wunderground v.1.15,2013-04-14 05:26:00,
2013-04-14 01:32:00,60.4,60.4,29.92,SE,144,0.0,0.0,100,0.00,,,0.00,Wunderground v.1.15,2013-04-14 05:32:00,
2013-04-14 01:38:00,60.5,60.5,29.92,SE,144,0.0,0.0,100,0.00,,,0.00,Wunderground v.1.15,2013-04-14 05:38:00,
2013-04-14 01:44:00,60.9,60.9,29.93,SE,144,0.0,0.0,100,0.00,,,0.00,Wunderground v.1.15,2013-04-14 05:44:00,
2013-04-14 01:50:00,61.0,61.0,29.93,SE,145,0.0,0.0,100,0.00,,,0.00,Wunderground v.1.15,2013-04-14 05:50:00,
2013-04-14 01:56:00,61.2,61.2,29.93,SSW,199,0.0,1.0,100,0.00,,,0.00,Wunderground v.1.15,2013-04-14 05:56:00,
2013-04-14 02:02:00,61.0,61.0,29.93,SSW,193,0.0,1.0,100,0.00,,,0.00,Wunderground v.1.15,2013-04-14 06:02:00,
2013-04-14 02:08:00,61.2,61.2,29.93,SSW,193,0.0,1.0,100,0.00,,,0.00,Wunderground v.1.15,2013-04-14 06:08:00,
2013-04-14 02:14:00,61.2,61.2,29.94,SSW,199,0.0,1.0,100,0.00,,,0.00,Wunderground v.1.15,2013-04-14 06:14:00,
2013-04-14 02:20:00,61.2,61.2,29.94,SSW,209,0.0,1.0,100,0.00,,,0.00,Wunderground v.1.15,2013-04-14 06:20:00,
2013-04-14 02:28:00,61.2,61.2,29.94,SW,215,0.0,1.0,100,0.00,,,0.00,Wunderground v.1.15,2013-04-14 06:28:00,
2013-04-14 02:34:00,60.9,60.9,29.94,SW,215,0.0,0.0,100,0.00,,,0.00,Wunderground v.1.15,2013-04-14 06:34:00,
2013-04-14 02:40:00,60.7,60.7,29.94,SW,215,0.0,0.0,100,0.00,,,0.00,Wunderground v.1.15,2013-04-14 06:40:00,
2013-04-14 02:46:00,60.7,60.7,29.92,SW,215,0.0,0.0,100,0.00,,,0.00,Wunderground v.1.15,2013-04-14 06:46:00,
2013-04-14 02:52:00,60.4,60.4,29.92,SW,215,0.0,0.0,100,0.00,,,0.00,Wunderground v.1.15,2013-04-14 06:52:00,
2013-04-14 02:58:00,60.4,60.4,29.92,SW,215,0.0,0.0,100,0.00,,,0.00,Wunderground v.1.15,2013-04-14 06:58:00,
2013-04-14 03:04:00,60.5,60.5,29.92,SW,215,0.0,0.0,100,0.00,,,0.00,Wunderground v.1.15,2013-04-14 07:04:00,
2013-04-14 03:10:00,60.7,60.7,29.92,SW,215,0.0,0.0,100,0.00,,,0.00,Wunderground v.1.15,2013-04-14 07:10:00,
2013-04-14 03:16:00,60.9,60.9,29.92,SW,215,0.0,0.0,100,0.00,,,0.00,Wunderground v.1.15,2013-04-14 07:16:00,
2013-04-14 03:22:00,61.0,61.0,29.92,SW,215,0.0,0.0,100,0.00,,,0.00,Wunderground v.1.15,2013-04-14 07:22:00,
2013-04-14 03:28:00,60.9,60.9,29.92,SW,215,0.0,0.0,100,0.00,,,0.00,Wunderground v.1.15,2013-04-14 07:28:00,
2013-04-14 03:34:00,60.9,60.9,29.92,SW,215,0.0,0.0,100,0.00,,,0.00,Wunderground v.1.15,2013-04-14 07:34:00,
2013-04-14 03:40:00,60.5,60.5,29.92,SW,215,0.0,0.0,100,0.00,,,0.00,Wunderground v.1.15,2013-04-14 07:40:00,
2013-04-14 03:46:00,60.7,60.7,29.92,SW,215,0.0,0.0,100,0.00,,,0.00,Wunderground v.1.15,2013-04-14 07:46:00,
2013-04-14 03:52:00,60.5,60.5,29.92,SW,215,0.0,0.0,100,0.00,,,0.00,Wunderground v.1.15,2013-04-14 07:52:00,
2013-04-14 03:58:00,60.5,60.5,29.92,SW,215,0.0,0.0,100,0.00,,,0.00,Wunderground v.1.15,2013-04-14 07:58:00,
2013-04-14 04:04:00,60.7,60.7,29.92,SW,215,0.0,0.0,100,0.00,,,0.00,Wunderground v.1.15,2013-04-14 08:04:00,
2013-04-14 04:10:00,60.5,60.5,29.92,SW,215,0.0,0.0,100,0.00,,,0.00,Wunderground v.1.15,2013-04-14 08:10:00,
2013-04-14 04:16:00,60.7,60.7,29.93,SW,215,0.0,0.0,100,0.00,,,0.00,Wunderground v.1.15,2013-04-14 08:16:00,
2013-04-14 04:22:00,60.5,60.5,29.93,SW,215,0.0,0.0,100,0.00,,,0.00,Wunderground v.1.15,2013-04-14 08:22:00,
2013-04-14 04:28:00,60.4,60.4,29.93,SW,215,0.0,0.0,100,0.00,,,0.00,Wunderground v.1.15,2013-04-14 08:28:00,
2013-04-14 04:34:00,60.4,60.4,29.92,SSW,210,0.0,0.0,100,0.00,,,0.00,Wunderground v.1.15,2013-04-14 08:34:00,
2013-04-14 04:40:00,60.4,60.4,29.92,SSW,210,0.0,0.0,100,0.00,,,0.00,Wunderground v.1.15,2013-04-14 08:40:00,
2013-04-14 04:48:00,60.2,60.2,29.92,SSW,196,0.0,0.0,100,0.00,,,0.00,Wunderground v.1.15,2013-04-14 08:48:00,
2013-04-14 04:54:00,60.4,60.4,29.92,South,189,0.0,0.0,100,0.00,,,0.00,Wunderground v.1.15,2013-04-14 08:54:00,
2013-04-14 05:00:00,60.5,60.5,29.93,South,185,0.0,0.0,100,0.00,,,0.00,Wunderground v.1.15,2013-04-14 09:00:00,
2013-04-14 05:06:00,60.5,60.5,29.93,SE,145,0.0,1.0,100,0.00,,,0.00,Wunderground v.1.15,2013-04-14 09:06:00,
2013-04-14 05:12:00,60.4,60.4,29.93,SE,144,0.0,0.0,100,0.00,,,0.00,Wunderground v.1.15,2013-04-14 09:12:00,
2013-04-14 05:18:00,60.4,60.4,29.92,SE,144,0.0,0.0,100,0.00,,,0.00,Wunderground v.1.15,2013-04-14 09:18:00,
2013-04-14 05:24:00,60.2,60.2,29.92,SE,144,0.0,1.0,100,0.00,,,0.00,Wunderground v.1.15,2013-04-14 09:24:00,
2013-04-14 05:30:00,60.1,60.1,29.93,SE,136,0.0,0.0,100,0.00,,,0.00,Wunderground v.1.15,2013-04-14 09:30:00,
2013-04-14 05:36:00,60.1,60.1,29.93,SE,136,0.0,0.0,100,0.00,,,0.00,Wunderground v.1.15,2013-04-14 09:36:00,
2013-04-14 05:42:00,60.2,60.2,29.93,SE,136,0.0,0.0,100,0.00,,,0.00,Wunderground v.1.15,2013-04-14 09:42:00,
2013-04-14 05:48:00,60.2,60.2,29.93,SE,136,0.0,0.0,100,0.00,,,0.00,Wunderground v.1.15,2013-04-14 09:48:00,
2013-04-14 05:54:00,60.5,60.5,29.93,SE,136,0.0,0.0,100,0.00,,,0.00,Wunderground v.1.15,2013-04-14 09:54:00,
2013-04-14 06:00:00,60.5,60.5,29.93,SE,134,0.0,0.0,100,0.00,,,0.00,Wunderground v.1.15,2013-04-14 10:00:00,
2013-04-14 06:06:00,60.7,60.7,29.93,SE,134,0.0,0.0,100,0.00,,,0.00,Wunderground v.1.15,2013-04-14 10:06:00,
2013-04-14 06:12:00,60.9,60.9,29.93,SE,124,0.0,0.0,100,0.00,,,0.00,Wunderground v.1.15,2013-04-14 10:12:00,
2013-04-14 06:18:00,61.2,61.2,29.93,SE,124,0.0,0.0,100,0.00,,,0.00,Wunderground v.1.15,2013-04-14 10:18:00,
2013-04-14 06:24:00,61.2,61.2,29.93,East,100,0.0,1.0,100,0.00,,,0.00,Wunderground v.1.15,2013-04-14 10:24:00,
2013-04-14 06:30:00,61.2,61.2,29.94,ESE,112,0.0,0.0,100,0.00,,,0.00,Wunderground v.1.15,2013-04-14 10:30:00,
2013-04-14 06:36:00,61.0,61.0,29.94,ESE,112,0.0,0.0,100,0.00,,,0.00,Wunderground v.1.15,2013-04-14 10:36:00,
2013-04-14 06:42:00,60.9,60.9,29.94,ESE,112,0.0,0.0,100,0.00,,,0.00,Wunderground v.1.15,2013-04-14 10:42:00,
2013-04-14 06:48:00,60.7,60.7,29.94,ESE,109,0.0,0.0,100,0.00,,,0.00,Wunderground v.1.15,2013-04-14 10:48:00,
2013-04-14 06:54:00,60.5,60.5,29.94,ESE,109,0.0,0.0,100,0.00,,,0.00,Wunderground v.1.15,2013-04-14 10:54:00,
2013-04-14 07:00:00,60.7,60.7,29.95,ESE,109,0.0,0.0,100,0.00,,,0.00,Wunderground v.1.15,2013-04-14 11:00:00,
2013-04-14 07:06:00,60.7,60.7,29.95,ESE,107,0.0,0.0,100,0.00,,,0.00,Wunderground v.1.15,2013-04-14 11:06:00,
2013-04-14 07:12:00,60.7,60.7,29.95,ESE,107,0.0,0.0,100,0.00,,,0.00,Wunderground v.1.15,2013-04-14 11:12:00,
2013-04-14 07:18:00,60.7,60.7,29.96,ESE,109,0.0,0.0,100,0.00,,,0.00,Wunderground v.1.15,2013-04-14 11:18:00,
2013-04-14 07:24:00,60.7,60.7,29.96,ESE,107,0.0,0.0,100,0.00,,,0.00,Wunderground v.1.15,2013-04-14 11:24:00,
2013-04-14 07:30:00,60.7,60.7,29.96,ESE,107,0.0,0.0,100,0.00,,,0.01,Wunderground v.1.15,2013-04-14 11:30:00,
2013-04-14 07:38:00,60.7,60.7,29.96,ESE,109,0.0,0.0,100,0.00,,,0.01,Wunderground v.1.15,2013-04-14 11:38:00,
2013-04-14 07:44:00,60.7,60.7,29.96,ESE,107,0.0,0.0,100,0.00,,,0.01,Wunderground v.1.15,2013-04-14 11:44:00,
2013-04-14 07:50:00,60.9,60.9,29.96,ESE,109,0.0,0.0,100,0.00,,,0.01,Wunderground v.1.15,2013-04-14 11:50:00,
2013-04-14 07:58:00,61.3,61.3,29.96,East,82,0.0,0.0,100,0.00,,,0.01,Wunderground v.1.15,2013-04-14 11:58:00,
2013-04-14 08:04:00,61.5,61.5,29.97,East,82,0.0,0.0,100,0.00,,,0.01,Wunderground v.1.15,2013-04-14 12:04:00,
2013-04-14 08:10:00,61.8,61.8,29.97,East,96,0.0,0.0,100,0.00,,,0.01,Wunderground v.1.15,2013-04-14 12:10:00,
2013-04-14 08:16:00,62.0,62.0,29.97,SE,126,0.0,1.0,100,0.00,,,0.01,Wunderground v.1.15,2013-04-14 12:16:00,
2013-04-14 08:22:00,62.1,62.1,29.97,East,92,0.0,0.0,100,0.00,,,0.01,Wunderground v.1.15,2013-04-14 12:22:00,
2013-04-14 08:28:00,62.4,62.4,29.97,East,82,0.0,1.0,100,0.00,,,0.01,Wunderground v.1.15,2013-04-14 12:28:00,
2013-04-14 08:34:00,62.6,62.6,29.97,East,92,1.0,3.0,100,0.00,,,0.01,Wunderground v.1.15,2013-04-14 12:34:00,
2013-04-14 08:40:00,62.9,62.9,29.97,ESE,104,1.0,1.0,100,0.00,,,0.01,Wunderground v.1.15,2013-04-14 12:40:00,
2013-04-14 08:46:00,63.1,63.1,29.97,East,86,1.0,2.0,100,0.00,,,0.01,Wunderground v.1.15,2013-04-14 12:46:00,
2013-04-14 08:52:00,63.2,63.2,29.97,East,100,1.0,2.0,100,0.00,,,0.01,Wunderground v.1.15,2013-04-14 12:52:00,
2013-04-14 08:58:00,63.4,63.4,29.97,ESE,113,1.0,2.0,100,0.00,,,0.01,Wunderground v.1.15,2013-04-14 12:58:00,
2013-04-14 09:04:00,63.9,63.6,29.97,ESE,103,1.0,2.0,99,0.00,,,0.01,Wunderground v.1.15,2013-04-14 13:04:00,
2013-04-14 09:10:00,64.0,63.4,29.97,East,83,1.0,1.0,98,0.00,,,0.01,Wunderground v.1.15,2013-04-14 13:10:00,
2013-04-14 09:16:00,64.3,63.7,29.98,ESE,102,1.0,2.0,98,0.00,,,0.01,Wunderground v.1.15,2013-04-14 13:16:00,
2013-04-14 09:22:00,64.5,63.6,29.98,ESE,123,1.0,2.0,97,0.00,,,0.01,Wunderground v.1.15,2013-04-14 13:22:00,
2013-04-14 09:28:00,64.8,63.6,29.98,East,93,2.0,3.0,96,0.00,,,0.01,Wunderground v.1.15,2013-04-14 13:28:00,
2013-04-14 09:34:00,64.8,63.3,29.98,East,92,2.0,2.0,95,0.00,,,0.01,Wunderground v.1.15,2013-04-14 13:34:00,
2013-04-14 09:40:00,65.0,63.5,29.98,East,100,2.0,2.0,95,0.00,,,0.01,Wunderground v.1.15,2013-04-14 13:40:00,
2013-04-14 09:48:00,65.3,63.5,29.97,ESE,107,2.0,2.0,94,0.00,,,0.01,Wunderground v.1.15,2013-04-14 13:48:00,
2013-04-14 09:54:00,65.6,63.2,29.97,East,97,2.0,2.0,92,0.00,,,0.01,Wunderground v.1.15,2013-04-14 13:54:00,
2013-04-14 10:00:00,65.8,63.1,29.97,ESE,119,2.0,2.0,91,0.00,,,0.01,Wunderground v.1.15,2013-04-14 14:00:00,
2013-04-14 10:06:00,66.1,63.1,29.97,ESE,102,2.0,3.0,90,0.00,,,0.01,Wunderground v.1.15,2013-04-14 14:06:00,
2013-04-14 10:12:00,66.4,63.4,29.97,East,89,2.0,2.0,90,0.00,,,0.01,Wunderground v.1.15,2013-04-14 14:12:00,
2013-04-14 10:18:00,66.6,62.9,29.98,East,80,2.0,2.0,88,0.00,,,0.01,Wunderground v.1.15,2013-04-14 14:18:00,
2013-04-14 10:24:00,66.9,62.9,29.98,East,97,1.0,2.0,87,0.00,,,0.01,Wunderground v.1.15,2013-04-14 14:24:00,
2013-04-14 10:30:00,67.1,62.8,29.98,ESE,119,2.0,2.0,86,0.00,,,0.01,Wunderground v.1.15,2013-04-14 14:30:00,
2013-04-14 10:36:00,67.3,63.0,29.98,ESE,113,2.0,2.0,86,0.00,,,0.01,Wunderground v.1.15,2013-04-14 14:36:00,
2013-04-14 10:42:00,67.6,62.9,29.98,ESE,119,2.0,2.0,85,0.00,,,0.01,Wunderground v.1.15,2013-04-14 14:42:00,
2013-04-14 10:48:00,67.6,62.3,29.99,ESE,114,2.0,3.0,83,0.00,,,0.01,Wunderground v.1.15,2013-04-14 14:48:00,
2013-04-14 10:54:00,67.8,61.8,29.99,ESE,110,2.0,2.0,81,0.00,,,0.01,Wunderground v.1.15,2013-04-14 14:54:00,
2013-04-14 11:00:00,67.8,61.0,30.00,SE,127,2.0,3.0,79,0.00,,,0.01,Wunderground v.1.15,2013-04-14 15:00:00,
2013-04-14 11:06:00,67.6,60.5,30.00,ESE,106,3.0,3.0,78,0.00,,,0.01,Wunderground v.1.15,2013-04-14 15:06:00,
2013-04-14 11:14:00,67.3,60.9,29.99,ESE,104,3.0,3.0,80,0.00,,,0.01,Wunderground v.1.15,2013-04-14 15:14:00,
2013-04-14 11:20:00,67.1,61.1,29.99,ESE,103,4.0,5.0,81,0.00,,,0.01,Wunderground v.1.15,2013-04-14 15:20:00,
2013-04-14 11:26:00,67.3,61.6,29.99,SSE,151,3.0,5.0,82,0.00,,,0.01,Wunderground v.1.15,2013-04-14 15:26:00,
2013-04-14 11:32:00,67.6,61.2,29.99,ESE,119,3.0,3.0,80,0.00,,,0.01,Wunderground v.1.15,2013-04-14 15:32:00,
2013-04-14 11:38:00,67.9,61.5,29.99,ESE,120,3.0,5.0,80,0.00,,,0.01,Wunderground v.1.15,2013-04-14 15:38:00,
2013-04-14 11:44:00,68.3,62.6,29.99,ESE,121,3.0,8.0,82,0.00,,,0.01,Wunderground v.1.15,2013-04-14 15:44:00,
2013-04-14 11:50:00,68.6,63.2,29.99,ESE,103,3.0,3.0,83,0.00,,,0.01,Wunderground v.1.15,2013-04-14 15:50:00,
2013-04-14 11:56:00,68.8,63.4,29.99,ESE,113,2.0,3.0,83,0.00,,,0.01,Wunderground v.1.15,2013-04-14 15:56:00,
2013-04-14 12:02:00,68.9,63.9,30.00,ESE,104,2.0,3.0,84,0.00,,,0.01,Wunderground v.1.15,2013-04-14 16:02:00,
2013-04-14 12:08:00,68.9,63.9,30.00,ESE,114,2.0,3.0,84,0.00,,,0.01,Wunderground v.1.15,2013-04-14 16:08:00,
2013-04-14 12:14:00,68.8,64.1,29.99,ESE,123,2.0,2.0,85,0.00,,,0.01,Wunderground v.1.15,2013-04-14 16:14:00,
2013-04-14 12:20:00,68.8,64.8,29.99,East,86,2.0,2.0,87,0.00,,,0.01,Wunderground v.1.15,2013-04-14 16:20:00,
2013-04-14 12:28:00,68.8,65.1,29.99,ESE,112,2.0,3.0,88,0.00,,,0.01,Wunderground v.1.15,2013-04-14 16:28:00,
2013-04-14 12:34:00,68.9,65.5,29.98,ESE,104,3.0,3.0,89,0.00,,,0.01,Wunderground v.1.15,2013-04-14 16:34:00,
2013-04-14 12:40:00,68.9,65.5,29.98,SE,134,3.0,3.0,89,0.00,,,0.01,Wunderground v.1.15,2013-04-14 16:40:00,
2013-04-14 12:48:00,68.9,65.8,29.97,SE,137,3.0,5.0,90,0.00,,,0.01,Wunderground v.1.15,2013-04-14 16:48:00,
2013-04-14 12:54:00,69.1,65.7,29.97,SE,136,3.0,5.0,89,0.00,,,0.01,Wunderground v.1.15,2013-04-14 16:54:00,
2013-04-14 13:00:00,69.1,65.7,29.96,SE,133,3.0,3.0,89,0.00,,,0.01,Wunderground v.1.15,2013-04-14 17:00:00,
2013-04-14 13:06:00,69.3,65.6,29.96,ESE,113,4.0,5.0,88,0.00,,,0.01,Wunderground v.1.15,2013-04-14 17:06:00,
2013-04-14 13:12:00,69.1,65.1,29.96,SE,124,5.0,10.0,87,0.00,,,0.01,Wunderground v.1.15,2013-04-14 17:12:00,
2013-04-14 13:18:00,68.8,65.4,29.97,East,95,7.0,10.0,89,0.00,,,0.01,Wunderground v.1.15,2013-04-14 17:18:00,
2013-04-14 13:24:00,68.1,65.7,29.97,ESE,109,8.0,10.0,92,0.00,,,0.01,Wunderground v.1.15,2013-04-14 17:24:00,
2013-04-14 13:30:00,67.9,65.8,29.96,SE,140,6.0,6.0,93,0.00,,,0.01,Wunderground v.1.15,2013-04-14 17:30:00,
2013-04-14 13:36:00,68.3,65.9,29.96,SE,124,5.0,6.0,92,0.00,,,0.01,Wunderground v.1.15,2013-04-14 17:36:00,
2013-04-14 13:42:00,68.8,65.4,29.96,ENE,71,3.0,4.0,89,0.00,,,0.01,Wunderground v.1.15,2013-04-14 17:42:00,
2013-04-14 13:48:00,69.3,65.6,29.95,SSE,157,3.0,4.0,88,0.00,,,0.01,Wunderground v.1.15,2013-04-14 17:48:00,
2013-04-14 13:54:00,69.3,64.3,29.95,ESE,117,3.0,6.0,84,0.00,,,0.01,Wunderground v.1.15,2013-04-14 17:54:00,
2013-04-14 14:00:00,69.4,64.7,29.94,SE,124,4.0,4.0,85,0.00,,,0.01,Wunderground v.1.15,2013-04-14 18:00:00,
2013-04-14 14:06:00,69.8,64.7,29.94,SE,141,3.0,4.0,84,0.00,,,0.01,Wunderground v.1.15,2013-04-14 18:06:00,
2013-04-14 14:12:00,69.9,64.8,29.94,SE,141,2.0,3.0,84,0.00,,,0.01,Wunderground v.1.15,2013-04-14 18:12:00,
2013-04-14 14:18:00,70.1,64.7,29.95,SE,124,3.0,3.0,83,0.00,,,0.01,Wunderground v.1.15,2013-04-14 18:18:00,
2013-04-14 14:24:00,70.3,64.5,29.95,ESE,112,4.0,7.0,82,0.00,,,0.01,Wunderground v.1.15,2013-04-14 18:24:00,
2013-04-14 14:30:00,69.9,65.2,29.95,SSE,151,5.0,5.0,85,0.00,,,0.01,Wunderground v.1.15,2013-04-14 18:30:00,
2013-04-14 14:36:00,69.6,65.2,29.95,SE,143,5.0,6.0,86,0.00,,,0.01,Wunderground v.1.15,2013-04-14 18:36:00,
2013-04-14 14:42:00,69.3,65.6,29.95,ESE,113,3.0,4.0,88,0.00,,,0.01,Wunderground v.1.15,2013-04-14 18:42:00,
2013-04-14 14:48:00,68.9,65.8,29.95,ESE,114,3.0,5.0,90,0.00,,,0.01,Wunderground v.1.15,2013-04-14 18:48:00,
2013-04-14 14:54:00,68.9,65.5,29.95,SE,134,3.0,3.0,89,0.00,,,0.01,Wunderground v.1.15,2013-04-14 18:54:00,
2013-04-14 15:00:00,68.9,65.5,29.96,ESE,117,3.0,3.0,89,0.00,,,0.01,Wunderground v.1.15,2013-04-14 19:00:00,
2013-04-14 15:08:00,68.9,65.5,29.96,SE,127,2.0,3.0,89,0.00,,,0.01,Wunderground v.1.15,2013-04-14 19:08:00,
2013-04-14 15:14:00,68.8,65.7,29.97,SE,124,2.0,3.0,90,0.00,,,0.01,Wunderground v.1.15,2013-04-14 19:14:00,
2013-04-14 15:20:00,68.9,65.8,29.97,East,99,2.0,2.0,90,0.00,,,0.01,Wunderground v.1.15,2013-04-14 19:20:00,
2013-04-14 15:26:00,69.1,66.0,29.97,ESE,113,2.0,2.0,90,0.00,,,0.01,Wunderground v.1.15,2013-04-14 19:26:00,
2013-04-14 15:32:00,69.3,66.2,29.96,East,100,2.0,2.0,90,0.00,,,0.01,Wunderground v.1.15,2013-04-14 19:32:00,
2013-04-14 15:38:00,69.4,66.0,29.96,SE,126,2.0,3.0,89,0.00,,,0.01,Wunderground v.1.15,2013-04-14 19:38:00,
2013-04-14 15:44:00,69.4,66.0,29.95,East,90,2.0,2.0,89,0.00,,,0.01,Wunderground v.1.15,2013-04-14 19:44:00,
2013-04-14 15:50:00,69.4,66.3,29.95,SE,137,2.0,2.0,90,0.00,,,0.01,Wunderground v.1.15,2013-04-14 19:50:00,
2013-04-14 15:56:00,69.6,66.2,29.95,ESE,102,2.0,2.0,89,0.00,,,0.01,Wunderground v.1.15,2013-04-14 19:56:00,
2013-04-14 16:02:00,69.6,66.2,29.95,East,100,1.0,2.0,89,0.00,,,0.01,Wunderground v.1.15,2013-04-14 20:02:00,
2013-04-14 16:08:00,69.8,66.4,29.95,East,86,1.0,2.0,89,0.00,,,0.01,Wunderground v.1.15,2013-04-14 20:08:00,
2013-04-14 16:14:00,69.9,66.2,29.96,East,96,1.0,2.0,88,0.00,,,0.01,Wunderground v.1.15,2013-04-14 20:14:00,
2013-04-14 16:20:00,70.1,66.0,29.96,ESE,123,1.0,1.0,87,0.00,,,0.01,Wunderground v.1.15,2013-04-14 20:20:00,
2013-04-14 16:26:00,70.1,65.7,29.96,SE,126,2.0,3.0,86,0.00,,,0.01,Wunderground v.1.15,2013-04-14 20:26:00,
2013-04-14 16:32:00,70.3,65.6,29.95,East,86,2.0,3.0,85,0.00,,,0.01,Wunderground v.1.15,2013-04-14 20:32:00,
2013-04-14 16:38:00,70.4,65.7,29.95,ESE,109,2.0,3.0,85,0.00,,,0.01,Wunderground v.1.15,2013-04-14 20:38:00,
2013-04-14 16:44:00,70.4,65.7,29.95,ESE,114,2.0,2.0,85,0.00,,,0.01,Wunderground v.1.15,2013-04-14 20:44:00,
2013-04-14 16:50:00,70.3,65.9,29.95,ESE,112,2.0,2.0,86,0.00,,,0.01,Wunderground v.1.15,2013-04-14 20:50:00,
2013-04-14 16:56:00,70.3,65.9,29.95,ESE,103,2.0,3.0,86,0.00,,,0.01,Wunderground v.1.15,2013-04-14 20:56:00,
2013-04-14 17:02:00,70.3,65.9,29.94,SSE,152,2.0,2.0,86,0.00,,,0.01,Wunderground v.1.15,2013-04-14 21:02:00,
2013-04-14 17:08:00,70.3,65.2,29.94,SE,141,2.0,5.0,84,0.00,,,0.01,Wunderground v.1.15,2013-04-14 21:08:00,
2013-04-14 17:14:00,70.4,65.3,29.94,ESE,102,2.0,2.0,84,0.00,,,0.01,Wunderground v.1.15,2013-04-14 21:14:00,
2013-04-14 17:20:00,70.4,65.7,29.94,ESE,104,2.0,2.0,85,0.00,,,0.01,Wunderground v.1.15,2013-04-14 21:20:00,
2013-04-14 17:28:00,70.3,65.9,29.94,SE,128,2.0,3.0,86,0.00,,,0.01,Wunderground v.1.15,2013-04-14 21:28:00,
2013-04-14 17:34:00,70.1,65.7,29.94,SE,128,2.0,2.0,86,0.00,,,0.01,Wunderground v.1.15,2013-04-14 21:34:00,
2013-04-14 17:40:00,70.1,65.7,29.94,ESE,113,2.0,5.0,86,0.00,,,0.01,Wunderground v.1.15,2013-04-14 21:40:00,
2013-04-14 17:48:00,69.8,65.4,29.92,ESE,117,3.0,5.0,86,0.00,,,0.01,Wunderground v.1.15,2013-04-14 21:48:00,
2013-04-14 17:54:00,69.8,65.8,29.92,ESE,106,3.0,3.0,87,0.00,,,0.01,Wunderground v.1.15,2013-04-14 21:54:00,
2013-04-14 18:00:00,69.8,65.4,29.92,ESE,112,3.0,3.0,86,0.00,,,0.01,Wunderground v.1.15,2013-04-14 22:00:00,
2013-04-14 18:08:00,69.6,65.2,29.92,SE,140,3.0,5.0,86,0.00,,,0.01,Wunderground v.1.15,2013-04-14 22:08:00,
2013-04-14 18:14:00,69.6,65.2,29.91,ESE,112,4.0,7.0,86,0.00,,,0.01,Wunderground v.1.15,2013-04-14 22:14:00,
2013-04-14 18:20:00,69.6,65.2,29.91,SE,127,4.0,5.0,86,0.00,,,0.01,Wunderground v.1.15,2013-04-14 22:20:00,
2013-04-14 18:26:00,69.4,65.0,29.91,ESE,117,4.0,5.0,86,0.00,,,0.01,Wunderground v.1.15,2013-04-14 22:26:00,
2013-04-14 18:32:00,69.3,64.9,29.91,ESE,109,4.0,4.0,86,0.00,,,0.01,Wunderground v.1.15,2013-04-14 22:32:00,
2013-04-14 18:38:00,69.3,64.9,29.91,ESE,110,4.0,6.0,86,0.00,,,0.01,Wunderground v.1.15,2013-04-14 22:38:00,
2013-04-14 18:44:00,69.3,64.6,29.92,SE,140,5.0,6.0,85,0.00,,,0.01,Wunderground v.1.15,2013-04-14 22:44:00,
2013-04-14 18:50:00,68.9,65.2,29.92,SSE,154,7.0,11.0,88,0.00,,,0.01,Wunderground v.1.15,2013-04-14 22:50:00,
2013-04-14 18:58:00,68.4,65.7,29.92,ESE,121,6.0,11.0,91,0.00,,,0.01,Wunderground v.1.15,2013-04-14 22:58:00,
2013-04-14 19:04:00,67.8,65.7,29.92,ESE,113,6.0,9.0,93,0.00,,,0.01,Wunderground v.1.15,2013-04-14 23:04:00,
2013-04-14 19:10:00,67.3,65.5,29.92,SE,134,7.0,8.0,94,0.00,,,0.01,Wunderground v.1.15,2013-04-14 23:10:00,
2013-04-14 19:16:00,67.1,65.9,29.91,ESE,112,7.0,13.0,96,0.00,,,0.01,Wunderground v.1.15,2013-04-14 23:16:00,
2013-04-14 19:22:00,66.8,65.9,29.91,ESE,109,7.0,8.0,97,0.00,,,0.01,Wunderground v.1.15,2013-04-14 23:22:00,
2013-04-14 19:28:00,66.4,65.8,29.91,SE,137,8.0,8.0,98,0.00,,,0.01,Wunderground v.1.15,2013-04-14 23:28:00,
2013-04-14 19:34:00,66.4,65.5,29.88,East,100,9.0,13.0,97,0.00,,,0.01,Wunderground v.1.15,2013-04-14 23:34:00,
2013-04-14 19:40:00,66.8,65.3,29.88,ESE,104,9.0,9.0,95,0.00,,,0.01,Wunderground v.1.15,2013-04-14 23:40:00,
2013-04-14 19:46:00,67.1,64.7,29.86,East,83,6.0,9.0,92,0.00,,,0.01,Wunderground v.1.15,2013-04-14 23:46:00,
2013-04-14 19:52:00,67.3,64.3,29.86,SE,128,6.0,10.0,90,0.00,,,0.01,Wunderground v.1.15,2013-04-14 23:52:00,
2013-04-14 19:58:00,67.6,63.9,29.86,SSE,147,7.0,13.0,88,0.00,,,0.01,Wunderground v.1.15,2013-04-14 23:58:00,
2013-04-14 20:04:00,67.6,64.2,29.84,ESE,119,9.0,17.0,89,0.00,,,0.01,Wunderground v.1.15,2013-04-15 00:04:00,
2013-04-14 20:10:00,67.4,64.4,29.84,SE,127,11.0,14.0,90,0.00,,,0.01,Wunderground v.1.15,2013-04-15 00:10:00,
2013-04-14 20:18:00,67.3,64.6,29.83,SE,134,10.0,17.0,91,0.00,,,0.01,Wunderground v.1.15,2013-04-15 00:18:00,
2013-04-14 20:24:00,67.3,64.6,29.83,ESE,123,10.0,10.0,91,0.00,,,0.01,Wunderground v.1.15,2013-04-15 00:24:00,
2013-04-14 20:30:00,67.1,64.7,29.84,ESE,109,9.0,9.0,92,0.00,,,0.01,Wunderground v.1.15,2013-04-15 00:30:00,
2013-04-14 20:36:00,67.1,64.7,29.84,ESE,119,8.0,10.0,92,0.00,,,0.01,Wunderground v.1.15,2013-04-15 00:36:00,
2013-04-14 20:42:00,67.1,64.4,29.84,SE,141,8.0,8.0,91,0.00,,,0.01,Wunderground v.1.15,2013-04-15 00:42:00,
2013-04-14 20:48:00,67.1,64.1,29.88,SSE,155,7.0,8.0,90,0.00,,,0.01,Wunderground v.1.15,2013-04-15 00:48:00,
2013-04-14 20:54:00,67.1,64.4,29.88,SSE,154,6.0,10.0,91,0.00,,,0.02,Wunderground v.1.15,2013-04-15 00:54:00,
2013-04-14 21:00:00,66.4,64.9,29.92,SSE,150,7.0,7.0,95,0.00,,,0.02,Wunderground v.1.15,2013-04-15 01:00:00,
2013-04-14 21:08:00,65.8,65.2,29.92,SE,140,5.0,8.0,98,0.07,,,0.03,Wunderground v.1.15,2013-04-15 01:08:00,
2013-04-14 21:14:00,65.5,65.2,29.94,SE,134,6.0,11.0,99,0.09,,,0.04,Wunderground v.1.15,2013-04-15 01:14:00,
2013-04-14 21:20:00,65.3,65.3,29.94,SE,137,7.0,7.0,100,0.14,,,0.06,Wunderground v.1.15,2013-04-15 01:20:00,
2013-04-14 21:28:00,65.2,65.2,29.94,ESE,123,6.0,9.0,100,0.08,,,0.06,Wunderground v.1.15,2013-04-15 01:28:00,
2013-04-14 21:34:00,65.0,65.0,29.92,SSE,150,5.0,6.0,100,0.04,,,0.07,Wunderground v.1.15,2013-04-15 01:34:00,
2013-04-14 21:40:00,65.0,65.0,29.92,SE,130,4.0,6.0,100,0.04,,,0.07,Wunderground v.1.15,2013-04-15 01:40:00,
2013-04-14 21:48:00,65.2,65.2,29.92,SE,140,6.0,8.0,100,0.04,,,0.07,Wunderground v.1.15,2013-04-15 01:48:00,
2013-04-14 21:54:00,65.3,65.3,29.92,SE,126,9.0,11.0,100,0.00,,,0.07,Wunderground v.1.15,2013-04-15 01:54:00,
2013-04-14 22:00:00,65.5,65.5,29.90,SE,137,8.0,8.0,100,0.00,,,0.07,Wunderground v.1.15,2013-04-15 02:00:00,
2013-04-14 22:06:00,65.5,65.5,29.90,ESE,109,7.0,11.0,100,0.00,,,0.08,Wunderground v.1.15,2013-04-15 02:06:00,
2013-04-14 22:12:00,65.3,65.3,29.90,ESE,110,5.0,6.0,100,0.00,,,0.08,Wunderground v.1.15,2013-04-15 02:12:00,
2013-04-14 22:18:00,65.3,65.3,29.90,ESE,104,5.0,8.0,100,0.05,,,0.09,Wunderground v.1.15,2013-04-15 02:18:00,
2013-04-14 22:24:00,65.6,65.6,29.90,ESE,114,7.0,7.0,100,0.12,,,0.10,Wunderground v.1.15,2013-04-15 02:24:00,
2013-04-14 22:30:00,65.6,65.6,29.90,SE,131,6.0,10.0,100,0.06,,,0.10,Wunderground v.1.15,2013-04-15 02:30:00,
2013-04-14 22:36:00,65.6,65.6,29.90,SE,124,5.0,10.0,100,0.04,,,0.11,Wunderground v.1.15,2013-04-15 02:36:00,
2013-04-14 22:42:00,65.6,65.6,29.90,ESE,107,4.0,4.0,100,0.04,,,0.11,Wunderground v.1.15,2013-04-15 02:42:00,
2013-04-14 22:48:00,65.8,65.8,29.91,ENE,73,3.0,4.0,100,0.06,,,0.12,Wunderground v.1.15,2013-04-15 02:48:00,
2013-04-14 22:54:00,65.8,65.8,29.91,East,93,2.0,3.0,100,0.08,,,0.13,Wunderground v.1.15,2013-04-15 02:54:00,
2013-04-14 23:00:00,65.8,65.8,29.89,East,90,2.0,3.0,100,0.14,,,0.00,Wunderground v.1.15,2013-04-15 03:00:00,
2013-04-14 23:08:00,65.8,65.8,29.89,ESE,119,2.0,6.0,100,0.10,,,0.01,Wunderground v.1.15,2013-04-15 03:08:00,
2013-04-14 23:14:00,65.8,65.8,29.89,East,100,2.0,6.0,100,0.07,,,0.02,Wunderground v.1.15,2013-04-15 03:14:00,
2013-04-14 23:20:00,65.8,65.8,29.89,ENE,75,2.0,3.0,100,0.09,,,0.03,Wunderground v.1.15,2013-04-15 03:20:00,
2013-04-14 23:26:00,66.0,66.0,29.89,East,95,3.0,3.0,100,0.08,,,0.03,Wunderground v.1.15,2013-04-15 03:26:00,
2013-04-14 23:32:00,66.1,66.1,29.89,East,88,2.0,2.0,100,0.05,,,0.04,Wunderground v.1.15,2013-04-15 03:32:00,
2013-04-14 23:38:00,66.0,66.0,29.89,ENE,66,2.0,2.0,100,0.11,,,0.05,Wunderground v.1.15,2013-04-15 03:38:00,
2013-04-14 23:44:00,66.1,66.1,29.89,ESE,107,2.0,2.0,100,0.07,,,0.06,Wunderground v.1.15,2013-04-15 03:44:00,
2013-04-14 23:50:00,66.0,66.0,29.89,NE,55,2.0,5.0,100,0.07,,,0.06,Wunderground v.1.15,2013-04-15 03:50:00,
2013-04-14 23:58:00,66.1,66.1,29.89,NE,35,3.0,5.0,100,0.04,,,0.07,Wunderground v.1.15,2013-04-15 03:58:00,